Simultaneous Nadir Overpasses (SNOs) Predictions

Prediction of SNOs between AQUA and METOP-C Satellite Orbit:

Table of predicted SNOs for the next 14.0 days since TLE Epoch: 3/23/2024
Index Date (AQUA) Time (AQUA) Lat,Lon (AQUA) SZA (AQUA ) Date (METOP-C) Time (METOP-C) Lat,Lon (METOP-C) SZA (METOP-C ) Distance(km) Time Diff (sec)
1 03/24/2024 12:28:29 -74.93, 171.34 106.88 03/24/2024 12:27:19 -74.85, 169.70 106.91 48.33 70
2 03/24/2024 13:17:59 75.26, -21.91 73.47 03/24/2024 13:17:50 75.25, -21.83 73.45 2.93 9
3 03/24/2024 14:07:22 -75.31, 145.62 106.50 03/24/2024 14:08:31 -75.31, 145.67 106.51 1.45 69
4 03/27/2024 04:40:03 -75.23, -72.29 107.61 03/27/2024 04:38:49 -75.21, -72.19 107.63 3.60 74
5 03/27/2024 05:29:27 75.27, 95.25 72.42 03/27/2024 05:29:27 75.27, 95.33 72.42 2.56 0
6 03/27/2024 06:18:54 -75.51, -97.77 107.35 03/27/2024 06:20:04 -75.52, -96.60 107.36 32.81 70
7 03/29/2024 20:51:28 -75.23, 44.89 108.66 03/29/2024 20:50:25 -75.21, 44.92 108.67 1.90 63
8 03/29/2024 21:40:52 75.28,-147.59 71.38 03/29/2024 21:41:03 75.28,-147.55 71.39 1.31 11
9 03/29/2024 22:30:27 -75.90, 18.22 107.97 03/29/2024 22:31:31 -75.94, 21.86 107.99 98.47 64
10 04/01/2024 13:02:52 -75.23, 162.07 109.69 04/01/2024 13:02:01 -75.25, 162.13 109.67 2.74 51
11 04/01/2024 13:52:16 75.29, -30.42 70.36 04/01/2024 13:52:40 75.27, -30.47 70.34 2.04 24
12 04/04/2024 05:14:14 -75.24, -80.74 110.71 04/04/2024 05:13:38 -75.23, -80.85 110.72 3.33 36
13 04/04/2024 06:03:38 75.30, 86.75 69.34 04/04/2024 06:04:16 75.30, 86.70 69.34 1.54 38



Historial Predications of SNOs between AQUA and METOP-C
